CW9436 Weather Reports


time (UTC)temp
C
wind
direction
speed
KPH
gust
KPH
rain 1hr
cm
rain 24hr
cm
rain mn
cm
humidity
%
barometer
mb
20260505200035 10 11 3.2 12.9 0.00 0.00 0.00 77 1015.4
20260505195520 10 12 4.8 11.3 0.00 0.00 0.00 77 1015.3
20260505195021 10 13 4.8 14.5 0.00 0.00 0.00 77 1015.3
20260505194541 10 13 4.8 14.5 0.00 0.00 0.00 77 1015.2
20260505194021 10 15 4.8 12.9 0.00 0.00 0.00 77 1015.2
20260505193521 10 16 6.4 12.9 0.00 0.00 0.00 76 1015.1
20260505193046 10 16 6.4 14.5 0.00 0.00 0.00 76 1015.0
20260505192517 10 16 6.4 14.5 0.00 0.00 0.00 77 1015.0
20260505192021 11 16 6.4 14.5 0.00 0.00 0.00 76 1015.0
20260505191552 11 17 4.8 16.1 0.00 0.00 0.00 76 1015.0
20260505191027 11 18 6.4 16.1 0.00 0.00 0.00 76 1015.0
20260505190521 11 10 8.0 14.5 0.00 0.00 0.00 75 1015.0
20260505190038 11 13 4.8 14.5 0.00 0.00 0.00 76 1015.0
20260505185521 11 14 6.4 14.5 0.00 0.00 0.00 76 1015.0
20260505185022 11 11 8.0 14.5 0.00 0.00 0.00 76 1015.0
20260505184535 11 8 4.8 19.3 0.00 0.00 0.00 78 1014.9
20260505184022 11 6 8.0 24.1 0.00 0.00 0.00 77 1014.9
20260505183521 11 352 11.3 25.7 0.00 0.00 0.00 77 1014.7
20260505183042 11 3 9.7 25.7 0.00 0.00 0.00 75 1014.7
20260505182520 11 341 9.7 24.1 0.00 0.00 0.00 74 1014.7
20260505182021 12 6 8.0 22.5 0.00 0.00 0.00 73 1014.7
20260505181540 12 343 9.7 22.5 0.00 0.00 0.00 72 1014.7
20260505181022 12 345 8.0 24.1 0.00 0.00 0.00 71 1014.6
20260505180521 12 351 8.0 24.1 0.00 0.00 0.00 70 1014.7
20260505180052 12 334 12.9 24.1 0.00 0.00 0.00 67 1014.7
20260505175521 13 355 9.7 19.3 0.00 0.00 0.00 67 1014.7
20260505175022 13 358 6.4 24.1 0.00 0.00 0.00 66 1014.6
20260505174542 13 4 8.0 24.1 0.00 0.00 0.00 65 1014.7
20260505174021 13 2 9.7 22.5 0.00 0.00 0.00 65 1014.6
20260505173522 13 350 11.3 24.1 0.00 0.00 0.00 66 1014.7
20260505173045 13 15 8.0 24.1 0.00 0.00 0.00 71 1014.6
20260505172522 13 12 8.0 22.5 0.00 0.00 0.00 69 1014.6
20260505172021 13 344 11.3 20.9 0.00 0.00 0.00 67 1014.7
20260505171541 13 18 9.7 20.9 0.00 0.00 0.00 68 1014.7
20260505171020 12 10 9.7 19.3 0.00 0.00 0.00 70 1014.7
20260505170521 12 11 6.4 20.9 0.00 0.00 0.00 70 1014.7
20260505170055 12 10 11.3 20.9 0.00 0.00 0.00 69 1014.7
20260505165526 12 14 6.4 20.9 0.00 0.00 0.00 72 1014.7
20260505165021 12 341 11.3 20.9 0.00 0.00 0.00 72 1014.9
20260505164539 12 21 6.4 24.1 0.00 0.00 0.00 75 1014.7
20260505164021 13 27 6.4 24.1 0.00 0.00 0.00 73 1014.7
20260505163521 13 351 11.3 20.9 0.00 0.00 0.00 73 1014.8
20260505163040 13 18 9.7 19.3 0.00 0.00 0.00 73 1014.7
20260505162521 13 351 9.7 22.5 0.00 0.00 0.00 73 1014.8
20260505162018 13 14 11.3 22.5 0.00 0.00 0.00 73 1014.8
20260505161534 13 345 11.3 22.5 0.00 0.00 0.00 72 1014.8
20260505161020 13 357 8.0 24.1 0.00 0.00 0.00 74 1014.7
20260505160519 13 360 6.4 24.1 0.00 0.00 0.00 75 1014.8
20260505153052 12 8 8.0 19.3 0.00 0.00 0.00 77 1014.9
20260505152522 12 11 8.0 19.3 0.00 0.00 0.00 77 1014.9
20260505152021 11 5 6.4 20.9 0.00 0.00 0.00 77 1014.9
20260505151542 11 6 6.4 24.1 0.00 0.00 0.00 77 1015.0
20260505151021 11 11 12.9 24.1 0.00 0.00 0.00 76 1015.1
20260505150521 12 329 9.7 24.1 0.00 0.00 0.00 76 1015.1
20260505140521 14 12 9.7 25.7 0.00 0.00 0.00 68 1015.1
20260505125023 12 335 16.1 24.1 0.00 0.00 0.00 73 1015.1
20260505124547 13 8 11.3 32.2 0.00 0.00 0.00 70 1015.0
20260505124021 13 22 12.9 35.4 0.00 0.00 0.00 69 1014.9
20260505123520 14 8 12.9 35.4 0.00 0.00 0.00 68 1015.0
20260505123102 15 14 11.3 27.4 0.00 0.00 0.00 65 1015.0
20260505122522 15 15 11.3 25.7 0.00 0.00 0.00 66 1015.0
20260505122019 14 20 12.9 25.7 0.00 0.00 0.00 68 1015.0
20260505121542 14 358 12.9 24.1 0.00 0.00 0.00 67 1015.0
20260505121022 13 12 9.7 22.5 0.00 0.00 0.00 70 1015.1
20260505120526 13 6 11.3 22.5 0.00 0.00 0.00 72 1015.1
20260505120045 13 26 8.0 24.1 0.00 0.00 0.00 72 1015.1
20260505115521 13 11 9.7 24.1 0.00 0.00 0.00 73 1015.2
20260505115021 13 16 11.3 24.1 0.00 0.00 0.00 72 1015.2
20260505114603 13 356 8.0 22.5 0.00 0.00 0.00 73 1015.2
20260505114021 12 340 11.3 22.5 0.00 0.00 0.00 73 1015.2
20260505113521 12 359 9.7 19.3 0.00 0.00 0.00 76 1015.3
20260505113039 11 4 9.7 24.1 0.00 0.00 0.00 75 1015.4
20260505112520 11 22 11.3 24.1 0.00 0.00 0.00 74 1015.5
20260505112021 11 1 9.7 22.5 0.00 0.00 0.00 76 1015.5
20260505111556 11 16 9.7 22.5 0.00 0.00 0.00 76 1015.6
20260505111019 11 360 11.3 20.9 0.00 0.00 0.00 77 1015.5
20260505110519 11 25 11.3 19.3 0.00 0.00 0.00 78 1015.6
20260505102022 12 18 8.0 19.3 0.00 0.00 0.00 77 1015.4
20260505101536 12 4 8.0 20.9 0.00 0.00 0.00 77 1015.6
20260505101020 11 354 11.3 22.5 0.00 0.00 0.00 77 1015.5
20260505100521 11 345 9.7 22.5 0.00 0.00 0.00 77 1015.5
20260505100036 11 341 8.0 22.5 0.00 0.00 0.00 78 1015.6
20260505095519 11 355 11.3 22.5 0.00 0.00 0.00 78 1015.6
20260505095018 11 349 12.9 24.1 0.00 0.00 0.00 79 1015.6
20260505094546 11 360 9.7 24.1 0.00 0.00 0.00 80 1015.6
20260505094022 11 339 9.7 24.1 0.00 0.00 0.00 79 1015.7
20260505093519 11 3 8.0 22.5 0.00 0.00 0.00 81 1015.7
20260505093040 11 353 11.3 22.5 0.00 0.00 0.00 80 1015.6
20260505092520 11 2 9.7 19.3 0.00 0.00 0.00 82 1015.6
20260505092021 11 20 8.0 20.9 0.00 0.00 0.00 82 1015.7
20260505091541 11 353 8.0 20.9 0.00 0.00 0.00 83 1015.6
20260505091023 11 18 8.0 19.3 0.00 0.00 0.00 84 1015.6
20260505090523 11 345 11.3 19.3 0.00 0.00 0.00 83 1015.7
20260505090048 11 9 4.8 17.7 0.00 0.00 0.00 85 1015.7
20260505085519 11 335 6.4 22.5 0.00 0.00 0.00 86 1015.7
20260505085019 11 358 8.0 22.5 0.00 0.00 0.00 86 1015.6
20260505084537 11 10 4.8 12.9 0.00 0.00 0.00 87 1015.6
20260505084018 11 10 3.2 14.5 0.00 0.00 0.00 87 1015.7
20260505083518 11 10 4.8 17.7 0.00 0.00 0.00 88 1015.6
20260505083044 11 16 8.0 17.7 0.00 0.00 0.00 88 1015.7
20260505082518 10 2 4.8 17.7 0.00 0.00 0.00 88 1015.7
20260505082019 10 14 6.4 14.5 0.00 0.00 0.00 88 1015.7
20260505081548 10 22 4.8 12.9 0.00 0.00 0.00 87 1015.7
20260505081026 10 10 4.8 14.5 0.00 0.00 0.00 86 1015.7
20260505080518 10 16 4.8 14.5 0.00 0.00 0.00 86 1015.7
20260505080042 10 352 4.8 17.7 0.00 0.00 0.00 87 1015.7
20260505075521 10 352 6.4 17.7 0.00 0.00 0.00 87 1015.6
20260505075021 10 17 6.4 14.5 0.00 0.00 0.00 89 1015.7
20260505074544 10 16 4.8 12.9 0.00 0.00 0.00 91 1015.7
20260505074019 10 19 3.2 11.3 0.00 0.00 0.00 91 1015.8
20260505073518 10 10 6.4 11.3 0.00 0.00 0.00 92 1015.7
20260505073038 10 8 1.6 9.7 0.00 0.00 0.00 92 1015.7
20260505072519 10 8 3.2 9.7 0.00 0.00 0.00 93 1015.8
20260505072019 9 8 3.2 9.7 0.00 0.00 0.00 93 1015.7
20260505071541 9 8 1.6 11.3 0.00 0.00 0.00 94 1015.7
20260505071019 9 8 3.2 11.3 0.00 0.00 0.00 94 1015.7
20260505070521 9 9 3.2 9.7 0.00 0.00 0.00 95 1015.7
20260505070044 8 9 3.2 9.7 0.00 0.00 0.00 95 1015.6
20260505065518 8 9 1.6 9.7 0.00 0.00 0.00 96 1015.7
20260505065018 8 9 4.8 9.7 0.00 0.00 0.00 96 1015.8
20260505064554 8 310 1.6 4.8 0.00 0.00 0.00 96 1015.7
20260505064021 8 281 0.0 4.8 0.00 0.00 0.00 97 1015.7
20260505063520 7 278 0.0 4.8 0.00 0.00 0.00 97 1015.8
20260505063049 7 0 0.0 3.2 0.00 0.00 0.00 97 1015.9
20260505062519 7 275 0.0 3.2 0.00 0.00 0.00 97 1015.9
20260505062019 7 0 0.0 3.2 0.00 0.00 0.00 97 1015.9
20260505061542 6 0 1.6 3.2 0.00 0.00 0.00 97 1015.8
20260505061019 6 0 0.0 3.2 0.00 0.00 0.00 97 1015.8
20260505060519 6 271 0.0 3.2 0.00 0.00 0.00 97 1015.8
20260505060036 6 0 0.0 3.2 0.00 0.00 0.00 97 1015.8
20260505055520 5 0 0.0 3.2 0.00 0.00 0.00 97 1015.8
20260505055020 5 237 0.0 3.2 0.00 0.00 0.00 97 1015.8
20260505054535 5 0 0.0 3.2 0.00 0.00 0.00 97 1015.8
20260505054021 5 0 0.0 3.2 0.00 0.00 0.00 96 1015.8
20260505053520 4 0 0.0 1.6 0.00 0.00 0.00 96 1015.8
20260505053034 4 0 0.0 1.6 0.00 0.00 0.00 95 1015.8
20260505052518 4 0 0.0 0.0 0.00 0.00 0.00 95 1015.8
20260505052018 4 0 0.0 1.6 0.00 0.00 0.00 95 1015.8
20260505051542 4 0 0.0 1.6 0.00 0.00 0.00 94 1015.8
20260505051022 4 124 0.0 3.2 0.00 0.00 0.00 94 1015.7
20260505050523 4 0 0.0 3.2 0.00 0.00 0.00 94 1015.7
20260505041558 5 0 0.0 3.2 0.00 0.00 0.00 94 1015.5
20260505041019 5 0 0.0 3.2 0.00 0.00 0.00 94 1015.5
20260505040518 5 0 0.0 3.2 0.00 0.00 0.00 94 1015.5
20260505040045 5 14 0.0 3.2 0.00 0.00 0.00 94 1015.4
20260505035521 5 0 1.6 4.8 0.00 0.00 0.00 94 1015.5
20260505035021 5 14 1.6 4.8 0.00 0.00 0.00 94 1015.5
20260505034544 5 14 1.6 4.8 0.00 0.00 0.00 94 1015.4
20260505034021 5 14 1.6 6.4 0.00 0.00 0.00 94 1015.4
20260505033522 5 0 0.0 6.4 0.00 0.00 0.00 94 1015.4
20260505033037 5 14 3.2 6.4 0.00 0.00 0.00 94 1015.4
20260505032520 5 14 1.6 6.4 0.00 0.00 0.00 94 1015.4
20260505032021 5 14 1.6 6.4 0.00 0.00 0.00 94 1015.3
20260505031535 5 14 1.6 6.4 0.00 0.00 0.00 94 1015.4
20260505031018 5 14 1.6 4.8 0.00 0.00 0.00 93 1015.3
20260505030520 5 14 1.6 4.8 0.00 0.00 0.00 93 1015.3
20260505030042 5 14 1.6 4.8 0.00 0.00 0.00 93 1015.4
20260505025518 5 0 1.6 4.8 0.00 0.00 0.00 93 1015.3
20260505025021 5 14 0.0 3.2 0.00 0.00 0.00 93 1015.4
20260505024546 5 0 0.0 3.2 0.00 0.00 0.00 93 1015.4
20260505024020 5 0 0.0 3.2 0.00 0.00 0.00 93 1015.5
20260505023521 5 0 0.0 3.2 0.00 0.00 0.00 93 1015.5
20260505023046 5 0 0.0 1.6 0.00 0.00 0.00 93 1015.6
20260505022523 5 0 0.0 3.2 0.00 0.00 0.00 93 1015.6
20260505022021 5 0 0.0 3.2 0.00 0.00 0.00 93 1015.6
20260505021544 6 0 0.0 3.2 0.00 0.00 0.00 93 1015.6
20260505021018 6 0 0.0 3.2 0.00 0.00 0.00 93 1015.7
20260505020520 6 0 0.0 3.2 0.00 0.00 0.00 93 1015.7
20260505020036 6 0 0.0 0.0 0.00 0.00 0.00 93 1015.7
20260505015521 6 0 0.0 0.0 0.00 0.00 0.00 92 1015.8
20260505015021 6 0 0.0 0.0 0.00 0.00 0.00 92 1015.8
20260505014545 6 0 0.0 0.0 0.00 0.00 0.00 92 1015.8
20260505014021 6 0 0.0 0.0 0.00 0.00 0.00 92 1015.9
20260505013521 6 0 0.0 0.0 0.00 0.00 0.00 92 1015.9
20260505013041 6 0 0.0 1.6 0.00 0.00 0.00 92 1016.0
20260505012521 6 0 0.0 1.6 0.00 0.00 0.00 92 1016.0
20260505012022 7 14 0.0 1.6 0.00 0.00 0.00 92 1016.1
20260505011542 7 0 0.0 1.6 0.00 0.00 0.00 92 1016.2
20260505011019 7 0 0.0 1.6 0.00 0.00 0.00 92 1016.1
20260505010519 7 0 0.0 1.6 0.00 0.00 0.00 91 1016.1
20260505010044 7 0 0.0 3.2 0.00 0.00 0.00 92 1016.1
20260505005521 7 0 0.0 3.2 0.00 0.00 0.00 92 1016.1
20260505005024 7 0 0.0 3.2 0.00 0.00 0.00 91 1016.1
20260505004536 7 0 0.0 3.2 0.00 0.00 0.00 92 1016.1
20260505004017 7 0 0.0 3.2 0.00 0.00 0.00 92 1016.1
20260505003519 7 0 0.0 3.2 0.00 0.00 0.00 92 1016.1
20260505003041 8 0 0.0 3.2 0.00 0.00 0.00 92 1016.1
20260505002524 8 0 0.0 0.0 0.00 0.00 0.00 92 1016.1
20260505002021 8 0 0.0 0.0 0.00 0.00 0.00 92 1016.1
20260505001549 8 0 0.0 0.0 0.00 0.00 0.00 92 1016.2
20260505001019 8 0 0.0 0.0 0.00 0.00 0.00 92 1016.1
20260505000521 8 0 0.0 0.0 0.00 0.00 0.00 92 1016.2
20260505000049 8 0 0.0 0.0 0.00 0.00 0.00 92 1016.3
20260504235519 8 0 0.0 0.0 0.00 0.00 0.00 92 1016.3
20260504235019 8 0 0.0 0.0 0.00 0.00 0.00 92 1016.3
20260504234546 8 0 0.0 0.0 0.00 0.00 0.00 92 1016.4
20260504234020 8 0 0.0 0.0 0.00 0.00 0.00 92 1016.4
20260504233521 8 0 0.0 1.6 0.00 0.00 0.00 93 1016.4
20260504233040 8 0 0.0 1.6 0.00 0.00 0.00 93 1016.4
20260504232522 8 0 0.0 1.6 0.00 0.00 0.00 93 1016.4
20260504232020 8 0 0.0 3.2 0.00 0.00 0.00 93 1016.4
20260504231553 8 0 0.0 3.2 0.00 0.00 0.00 93 1016.4
20260504231024 8 0 0.0 3.2 0.00 0.00 0.00 93 1016.4
20260504230520 8 14 0.0 3.2 0.00 0.00 0.00 92 1016.4
20260504230043 8 0 0.0 1.6 0.00 0.00 0.00 93 1016.4
20260504225521 7 0 0.0 3.2 0.00 0.00 0.00 92 1016.4
20260504225021 7 0 0.0 3.2 0.00 0.00 0.00 92 1016.4
20260504224541 7 0 0.0 3.2 0.00 0.00 0.00 92 1016.3
20260504224023 7 0 0.0 3.2 0.00 0.00 0.00 91 1016.4
20260504223521 7 0 0.0 3.2 0.00 0.00 0.00 91 1016.4
20260504223040 7 0 0.0 3.2 0.00 0.00 0.00 91 1016.5
20260504222521 7 0 0.0 0.0 0.00 0.00 0.00 91 1016.5
20260504222021 7 0 0.0 0.0 0.00 0.00 0.00 91 1016.5
20260504221543 7 0 0.0 0.0 0.00 0.00 0.00 91 1016.5
20260504221019 7 0 0.0 0.0 0.00 0.00 0.00 91 1016.6
20260504220522 7 0 0.0 0.0 0.00 0.00 0.00 90 1016.6
20260504220037 7 0 0.0 0.0 0.00 0.00 0.00 89 1016.6
20260504215521 7 0 0.0 0.0 0.00 0.00 0.00 89 1016.7
20260504215021 7 0 0.0 0.0 0.00 0.00 0.00 89 1016.7
20260504214534 7 0 0.0 0.0 0.00 0.00 0.00 88 1016.8
20260504214023 8 0 0.0 0.0 0.00 0.00 0.00 88 1016.8
20260504213522 8 0 0.0 0.0 0.00 0.00 0.00 88 1016.8
20260504213044 8 0 0.0 0.0 0.00 0.00 0.00 88 1016.8
20260504212522 8 0 0.0 0.0 0.00 0.00 0.00 87 1016.8
20260504212019 8 0 0.0 0.0 0.00 0.00 0.00 87 1016.8
20260504211548 8 0 0.0 1.6 0.00 0.00 0.00 87 1016.9
20260504211021 8 0 0.0 3.2 0.00 0.00 0.00 87 1016.9
20260504210521 8 0 0.0 3.2 0.00 0.00 0.00 87 1016.9
20260504210100 8 0 0.0 4.8 0.00 0.00 0.00 87 1016.9
20260504205520 8 0 0.0 6.4 0.00 0.00 0.00 86 1016.9
20260504205020 8 0 0.0 6.4 0.00 0.00 0.00 86 1016.8
20260504204548 9 0 1.6 6.4 0.00 0.00 0.00 86 1016.8
20260504204021 9 14 1.6 4.8 0.00 0.00 0.00 85 1016.8
20260504203518 9 0 1.6 6.4 0.00 0.00 0.00 85 1016.8
20260504203048 9 14 1.6 8.0 0.00 0.00 0.00 85 1016.8
20260504202522 9 14 1.6 8.0 0.00 0.00 0.00 85 1016.8
20260504202021 10 14 3.2 8.0 0.00 0.00 0.00 85 1016.7
20260504201548 10 14 3.2 9.7 0.00 0.00 0.00 85 1016.6
20260504201022 10 14 1.6 9.7 0.00 0.00 0.00 85 1016.7
20260504200521 10 14 3.2 9.7 0.00 0.00 0.00 85 1016.6